Theta_e
335 334 325 320 319 318 318 315 300 302 300 295 298 301 298 302 303 303 303 309 315 320 317 322 317 321 321 320 319 323 327 318 320 315 312 333 346 348 347 350 352 352 356 359 359 358 358 355 354 355 355 356 356 356 355 356 356 356 356 355 355 355 354 353 353 353 352 352 351 350 350 350 349 348 348 349 349 349 349 348 347 347 347 347 347 347 347 347 346 346 347 347 347 346 347 346 347
319 319 319 320 319 317 309 314 300 301 299 298 300 301 302 303 302 301 303 305 317 322 323 325 323 324 328 326 328 326 322 333 333 332 337 343 347 347 348 350 352 352 357 359 359 360 358 357 354 355 356 356 356 356 356 356 356 356 356 356 355 355 354 354 353 353 352 351 351 350 350 349 348 348 348 348 348 348 349 347 347 347 346 346 346 346 346 345 346 346 346 346 346 346 346 346 345
315 316 317 317 318 314 314 308 296 298 295 296 300 302 303 302 301 304 308 313 320 326 328 328 328 327 326 326 322 320 323 335 334 337 337 344 340 343 348 351 353 353 355 358 357 354 352 357 354 354 356 356 356 356 356 355 355 355 356 356 356 355 354 354 353 352 351 351 350 350 349 348 348 348 348 348 348 347 347 348 346 346 346 346 346 346 345 344 345 345 346 346 344 345 344 344 345
318 318 316 316 309 311 306 304 298 298 295 298 299 305 307 306 309 315 315 323 325 328 328 325 325 330 327 321 323 329 327 331 336 336 335 340 342 346 348 351 353 353 358 359 356 353 358 355 354 355 356 356 356 356 356 356 356 355 355 355 355 355 354 354 354 353 351 351 350 350 349 348 348 348 348 348 347 347 347 346 346 345 345 346 345 345 345 345 345 345 346 345 344 343 343 344 344
316 318 319 315 312 302 303 301 301 301 295 299 298 309 310 313 314 314 320 324 324 325 328 327 326 328 333 331 329 325 329 336 336 339 338 343 346 347 349 350 352 352 351 355 358 352 358 353 354 355 356 356 356 356 356 356 356 355 354 354 354 354 354 355 354 353 351 350 350 350 349 349 349 349 349 349 350 348 346 346 346 346 346 345 345 345 346 347 345 345 345 345 344 345 345 344 343
316 317 318 316 308 314 306 299 297 298 301 302 301 308 311 317 317 319 320 321 324 326 326 326 325 324 327 331 334 331 334 329 338 338 342 343 347 348 348 349 349 350 350 353 355 358 356 352 352 353 354 355 355 356 356 356 357 356 354 354 354 354 354 354 354 353 353 354 352 351 349 350 351 351 351 351 347 345 345 346 345 345 345 345 345 344 344 345 344 345 345 344 345 344 344 343 344
313 314 313 312 309 308 299 299 299 301 302 302 303 309 314 317 317 317 317 318 323 325 327 325 328 329 325 331 333 337 339 340 338 340 345 347 348 348 349 347 348 348 350 350 351 353 357 351 351 351 351 353 354 355 355 356 356 355 355 354 354 354 354 353 354 355 355 354 354 352 352 352 352 352 351 350 347 346 347 346 345 345 345 345 344 343 343 344 343 343 344 344 345 344 345 345 344
319 312 309 304 301 302 298 300 301 302 302 302 306 307 313 318 317 316 315 317 315 319 325 327 329 325 325 334 326 336 340 343 343 347 347 348 347 346 348 347 347 347 347 350 351 352 352 350 350 349 350 350 351 353 354 355 356 356 355 355 354 354 354 354 353 354 354 354 354 354 353 353 352 352 351 348 346 345 346 345 343 344 344 345 343 343 343 343 343 343 343 344 345 346 345 345 343
315 313 311 304 300 301 300 300 301 303 302 302 305 308 309 308 309 313 314 317 319 320 323 325 326 321 324 327 329 337 341 344 345 347 347 346 345 345 346 347 346 346 346 348 351 353 353 350 350 349 350 350 350 349 352 355 355 356 356 355 355 354 354 354 354 354 353 353 354 353 353 353 352 351 348 348 347 345 346 343 343 344 344 344 344 343 342 342 343 344 344 344 345 345 345 344 342
311 311 303 301 301 297 298 300 299 302 301 303 304 306 306 306 307 308 312 314 316 319 322 324 325 322 325 325 330 334 339 345 345 344 345 346 346 345 345 347 348 347 349 349 350 351 353 354 349 349 349 350 350 350 351 354 355 355 356 356 355 354 355 354 353 353 353 353 353 354 353 352 352 350 345 349 348 347 345 345 344 345 345 344 344 343 342 342 344 344 344 345 344 344 343 343 342
306 306 310 300 297 296 295 299 300 301 300 303 304 305 305 307 306 306 309 310 313 315 322 323 322 325 326 327 331 341 345 344 342 341 344 345 346 344 345 349 350 351 349 349 350 349 352 354 352 349 348 349 348 348 347 348 353 355 354 355 355 355 355 354 353 353 353 353 353 353 353 352 351 348 345 347 349 348 348 344 345 345 345 344 343 343 342 342 342 344 343 344 343 344 343 342 341
305 303 302 296 297 297 299 299 299 301 301 302 302 305 307 305 306 305 308 307 310 312 318 320 321 327 324 325 330 339 342 342 342 343 344 345 344 345 346 348 350 350 351 351 348 350 350 352 355 352 349 347 348 347 346 348 350 353 355 356 355 356 355 353 354 353 353 353 352 352 353 351 350 350 349 348 349 348 348 348 346 345 344 344 345 344 343 342 341 342 343 344 344 344 343 341 341
304 305 302 298 299 301 299 297 299 298 300 302 302 305 307 305 304 305 307 309 310 312 313 320 325 323 320 323 335 339 338 341 343 345 344 345 344 345 346 347 349 349 350 350 350 350 352 352 352 352 353 349 348 346 346 348 351 349 350 351 351 352 354 355 354 354 354 352 352 352 351 351 350 349 349 349 349 348 349 348 349 347 343 344 343 344 344 343 342 342 343 344 345 344 343 341 341
304 305 302 297 303 298 299 299 300 298 300 303 305 306 306 305 306 307 307 306 309 309 315 324 324 324 326 330 330 333 338 343 343 345 344 344 345 344 346 346 348 349 349 350 348 349 351 351 353 354 352 353 352 351 347 347 349 348 348 350 351 352 351 352 353 352 352 352 352 351 351 351 350 349 349 349 348 349 349 349 348 347 346 344 345 344 342 340 343 342 342 343 345 344 342 341 341
306 308 303 300 300 300 299 297 299 298 300 304 304 305 305 307 308 308 307 306 308 315 327 326 324 321 319 320 324 324 339 343 345 345 345 344 343 344 343 345 346 348 349 349 349 349 348 351 352 353 354 353 355 354 350 351 348 350 348 350 351 350 351 351 351 351 352 351 347 346 344 345 346 346 350 347 348 348 350 349 348 347 347 346 345 343 343 342 340 343 342 345 344 343 341 342 341
308 306 303 299 297 297 300 298 299 298 301 303 305 306 305 307 312 309 308 309 316 323 323 320 329 321 323 321 326 334 341 344 346 346 344 342 342 342 342 343 344 345 347 347 349 348 348 349 351 350 349 353 354 353 354 353 351 349 350 350 350 351 351 350 349 351 351 352 348 343 340 344 344 347 345 351 351 351 350 346 348 348 347 345 346 345 345 343 344 345 344 343 343 342 341 341 341
309 306 299 298 297 298 300 300 300 297 303 304 306 306 303 304 313 313 317 314 314 318 317 325 324 326 322 326 332 340 343 345 346 345 343 341 341 340 341 342 342 342 342 344 346 346 345 346 346 349 350 350 351 348 350 352 350 351 352 350 350 350 349 348 348 348 350 351 349 338 338 343 344 349 345 347 352 346 347 346 346 349 348 348 345 347 344 344 343 344 343 343 342 342 342 341 342
305 300 299 298 300 298 301 299 301 303 302 303 304 305 304 304 314 317 317 312 315 319 321 328 328 329 335 336 336 342 344 345 344 342 340 339 340 339 339 340 339 338 339 340 342 343 344 345 345 347 348 348 349 347 350 350 351 352 353 356 353 352 350 350 352 352 349 353 349 349 348 345 348 342 345 343 345 343 347 346 345 346 347 348 347 347 345 344 342 342 343 342 342 341 339 335 338
301 301 300 297 301 301 303 302 303 302 302 304 305 306 305 306 310 316 312 309 314 316 321 325 324 330 336 338 339 341 343 344 342 341 339 339 338 338 338 339 339 338 338 339 340 341 343 344 344 344 345 347 350 350 347 348 349 349 348 348 348 349 351 350 353 351 349 351 347 348 348 345 347 344 345 344 346 348 346 347 345 345 347 348 348 347 347 344 342 342 341 342 342 340 335 334 336
304 302 298 299 302 302 303 303 303 304 305 304 304 305 305 308 312 317 313 312 317 314 319 321 323 327 332 337 338 339 342 341 341 340 339 338 339 338 338 337 338 338 338 338 339 341 344 343 344 344 344 348 350 350 351 352 351 353 352 353 352 353 353 351 351 350 348 349 345 348 348 345 345 349 345 349 347 342 346 345 343 342 344 345 347 347 348 343 343 341 340 342 342 337 335 336 333
304 301 299 300 303 300 302 304 304 305 305 304 304 305 305 311 312 315 314 312 312 315 320 321 322 326 333 335 336 338 341 339 340 341 339 338 338 339 339 338 338 338 339 340 341 341 342 343 343 343 344 345 346 349 350 349 351 350 350 352 352 350 350 349 349 350 349 349 349 345 344 347 345 347 344 345 343 345 344 345 344 343 341 340 346 340 339 341 341 341 342 340 338 337 337 337 336
303 300 302 302 302 300 303 304 304 304 305 304 304 303 303 308 312 314 315 311 310 316 323 324 326 328 333 335 336 337 339 338 338 338 337 338 337 338 339 339 341 340 340 338 341 341 342 342 342 342 342 342 347 345 344 346 349 349 350 349 350 350 347 348 350 350 349 351 350 347 346 346 341 343 346 343 345 346 345 343 344 345 343 342 340 338 338 338 336 339 338 337 340 340 338 338 336
298 301 302 303 303 301 303 304 304 304 304 303 303 305 306 305 310 315 315 313 316 321 326 326 329 331 335 338 337 336 337 336 337 336 337 336 337 338 338 338 339 338 339 340 340 340 338 340 341 342 342 343 343 344 344 344 342 343 348 349 347 345 346 347 348 348 349 351 351 349 346 343 341 341 344 345 344 345 345 346 344 346 345 342 343 339 337 338 337 335 338 338 339 340 337 336 337
301 301 302 302 304 302 304 303 304 305 304 303 305 306 304 304 306 314 315 315 315 318 324 330 333 334 337 336 338 337 337 336 337 338 336 337 338 338 339 338 339 340 338 339 339 340 340 339 340 340 342 343 344 343 345 345 344 343 346 348 346 345 345 345 347 347 348 349 351 349 350 347 342 340 339 341 344 345 346 347 347 344 343 340 341 337 336 335 335 335 337 336 336 336 335 336 335
299 299 301 301 302 303 304 305 305 305 305 306 305 303 304 305 309 312 314 314 316 319 324 330 333 335 336 338 336 336 336 337 336 338 338 338 339 340 340 339 340 339 336 339 338 336 338 340 340 337 339 341 343 342 341 342 345 344 344 343 344 344 343 344 346 348 348 347 348 348 347 348 345 343 341 341 344 345 347 347 347 345 344 339 339 338 336 335 335 334 335 336 336 336 335 336 334
300 300 302 302 302 304 304 304 304 304 305 305 303 303 304 305 308 311 314 315 316 320 324 328 332 333 334 335 336 337 337 337 336 337 337 339 339 339 338 338 340 338 337 339 339 337 336 338 337 337 338 337 339 339 339 339 339 342 344 344 345 345 345 348 350 346 347 346 344 344 343 346 344 344 342 342 344 346 347 348 346 347 345 342 343 338 336 335 334 334 333 335 333 334 333 334 334
302 301 302 302 303 303 304 303 304 304 304 304 303 303 304 306 308 306 312 317 319 320 323 329 330 331 333 334 336 336 335 335 335 338 337 338 337 337 340 339 337 335 338 336 337 336 338 334 334 336 337 342 338 335 337 338 338 338 339 345 346 343 346 347 344 347 346 342 344 345 344 343 343 346 346 345 345 346 345 344 346 345 346 344 342 337 338 335 335 335 333 332 334 333 333 334 333
303 302 303 302 303 303 303 304 303 305 303 304 305 303 304 305 305 306 311 315 320 320 321 326 328 330 333 333 333 335 334 334 335 337 334 334 334 338 341 339 337 334 335 335 335 336 340 334 332 334 336 343 340 332 337 335 336 338 339 339 344 342 346 342 344 346 346 347 347 346 346 349 348 349 349 347 344 340 345 346 346 344 339 344 341 339 342 336 336 334 332 334 335 335 334 334 335
302 302 299 301 302 301 303 302 303 304 303 304 305 303 301 303 302 306 311 314 316 319 321 323 326 329 332 333 333 333 333 335 336 334 337 337 338 339 338 338 337 335 333 337 336 340 342 341 335 336 336 341 339 335 332 333 337 336 337 338 343 345 345 346 345 342 345 345 347 346 343 346 348 349 350 348 344 344 346 346 346 343 340 343 343 341 338 340 336 334 334 334 334 336 335 335 333
303 302 301 298 299 300 302 304 304 303 303 303 303 296 300 302 303 307 311 314 316 318 318 321 324 327 331 333 333 334 336 336 336 336 336 335 336 337 336 337 337 333 331 335 342 343 343 343 343 341 338 335 337 333 335 332 334 335 337 338 340 343 342 342 343 344 343 341 342 345 342 343 345 347 346 346 346 345 346 344 344 342 343 342 342 340 341 338 336 334 334 333 332 333 333 336 333
300 301 301 299 297 297 302 303 303 301 303 304 304 296 300 302 303 306 312 313 314 314 315 320 323 325 328 332 332 332 332 334 333 332 332 333 335 335 335 338 339 335 331 335 342 341 347 345 345 341 342 338 337 335 333 333 334 332 335 336 337 337 338 339 344 343 343 342 343 343 342 344 344 345 345 346 345 345 343 344 342 342 342 342 343 341 341 335 335 334 337 332 334 334 333 333 335
302 297 295 299 296 298 301 304 303 300 302 304 303 298 300 302 303 306 311 312 313 312 315 319 321 323 327 328 329 328 330 331 330 328 331 333 334 334 335 336 341 338 337 339 340 344 343 346 344 342 340 339 338 337 335 335 335 335 334 333 335 335 333 335 339 341 340 341 340 339 342 344 344 345 346 346 344 343 342 342 343 342 343 343 340 342 340 332 335 339 338 337 333 332 332 334 334
300 298 296 295 298 298 299 301 305 304 303 303 302 298 301 301 304 307 310 312 312 312 313 317 319 321 325 325 327 326 326 328 327 326 330 333 333 333 336 337 338 341 342 343 342 345 344 345 344 343 341 339 338 335 333 335 334 334 333 334 334 333 332 332 333 335 334 337 338 338 341 342 344 343 344 344 344 342 342 340 343 342 341 338 336 339 338 336 337 337 338 339 338 335 332 330 332
296 299 296 297 296 297 296 300 304 304 303 301 302 300 300 302 303 305 309 310 311 311 311 316 319 320 323 324 324 325 326 326 325 326 328 330 329 333 335 336 339 342 344 344 344 344 343 343 344 344 343 340 335 333 334 333 333 333 331 332 331 331 332 331 331 332 333 333 336 339 341 341 341 341 342 342 343 342 340 340 341 340 339 331 334 335 338 337 338 336 335 335 335 333 332 330 331
294 295 296 295 296 297 297 297 301 303 301 300 301 300 300 301 303 304 306 310 310 311 310 313 316 319 321 322 322 322 324 325 326 326 326 329 330 331 334 337 340 341 341 343 345 345 343 342 342 344 341 337 334 334 334 333 332 331 332 330 331 330 330 331 332 330 331 332 335 336 335 335 334 338 339 340 340 340 340 339 335 334 335 335 333 334 335 334 335 337 332 333 335 334 333 333 333
295 297 297 297 295 295 296 300 303 302 300 300 299 300 300 301 302 304 306 308 310 311 314 316 317 317 320 320 320 320 322 324 328 329 328 328 330 331 332 334 337 339 339 341 343 344 342 341 342 341 337 334 333 332 330 327 325 324 325 326 327 328 329 329 330 330 331 330 332 333 333 333 333 333 333 334 334 336 337 337 335 335 336 333 331 330 333 334 335 337 336 335 335 334 334 335 334
297 298 297 297 297 298 299 300 302 304 300 300 300 300 300 301 302 304 306 308 309 311 312 314 314 315 316 318 320 321 323 324 326 327 327 327 328 330 332 333 335 337 338 340 341 342 341 339 340 337 336 334 330 327 326 324 323 323 325 323 325 325 327 328 327 328 329 331 331 328 328 328 329 331 331 332 332 332 333 338 338 333 335 333 332 332 332 333 335 336 336 334 333 333 333 332 333
298 298 296 297 297 297 299 300 302 303 302 300 301 300 300 301 303 304 306 305 305 308 311 313 314 314 315 316 317 320 323 325 324 324 325 326 325 329 331 331 333 333 335 338 340 341 341 339 338 337 334 332 329 328 325 324 325 323 322 323 321 321 321 322 323 327 327 329 328 326 326 325 326 329 330 331 332 331 330 331 333 334 337 335 334 332 330 331 332 333 332 331 331 330 329 333 333
299 298 297 296 298 299 300 301 302 302 300 299 300 299 300 303 303 305 305 305 306 308 310 311 313 313 313 313 315 318 320 322 324 324 324 323 325 327 328 330 332 334 335 336 339 340 340 339 336 337 333 330 330 330 325 324 325 327 323 321 320 320 326 328 324 325 327 325 327 326 327 328 328 327 329 328 329 329 330 330 331 332 332 333 333 332 332 333 333 332 330 328 328 329 329 334 334
299 297 297 295 297 296 294 300 303 303 301 300 299 299 300 303 305 305 306 306 308 312 312 313 313 312 312 314 314 315 317 321 324 325 324 323 324 325 326 328 331 332 333 335 337 338 338 335 337 335 333 331 330 329 325 327 328 329 330 327 328 325 322 324 326 327 326 327 325 325 327 328 327 327 327 327 327 327 329 329 330 330 330 332 331 329 329 328 330 330 330 328 328 326 326 328 334
300 300 298 297 297 298 298 299 301 304 304 304 299 298 297 300 301 302 306 308 308 308 309 309 310 310 313 316 317 318 317 319 321 325 326 324 323 323 324 327 330 330 332 333 335 336 336 335 336 335 332 330 329 327 328 329 327 326 327 328 325 324 324 323 323 323 325 323 324 324 325 326 326 326 327 327 325 325 327 329 329 329 328 329 328 327 327 327 328 329 329 330 328 327 324 327 330
298 300 300 299 299 298 298 299 298 297 297 300 298 291 292 298 300 300 304 305 304 306 306 306 308 309 308 309 312 315 319 320 320 322 325 326 325 325 325 326 327 328 330 333 335 335 335 333 335 334 331 330 328 328 329 325 323 321 318 316 315 316 315 318 319 320 321 322 320 324 324 326 326 327 326 326 325 325 327 328 329 327 327 327 327 326 325 325 324 325 329 329 329 331 328 327 326
295 297 301 300 299 300 299 298 297 291 290 296 302 290 287 298 298 301 302 302 303 306 306 305 306 307 307 308 309 310 313 316 319 321 323 325 326 325 325 325 326 326 329 332 334 335 333 333 335 333 330 328 328 328 328 324 323 322 321 318 316 316 316 318 322 323 322 321 323 324 325 328 327 327 327 326 325 324 326 327 328 327 325 326 325 326 324 324 323 323 326 326 327 327 328 325 325
295 303 300 300 299 298 299 298 298 295 299 299 299 297 290 290 297 301 302 301 301 302 305 306 305 307 307 308 309 311 311 314 316 319 321 323 326 325 324 325 326 326 329 331 333 333 332 334 333 332 329 326 328 329 327 325 323 322 322 320 317 317 317 318 321 323 325 322 323 324 324 326 327 327 326 326 326 326 326 325 325 324 321 321 321 321 323 323 324 324 326 327 326 326 325 325 324
298 302 301 300 299 300 300 299 297 297 295 291 296 297 292 290 296 301 301 298 299 300 302 304 306 306 308 309 309 310 311 312 313 314 319 322 323 326 326 326 327 327 328 329 331 331 332 333 331 331 328 327 328 329 326 325 324 323 322 321 317 318 320 321 320 321 321 323 323 322 323 324 325 325 324 325 324 321 319 319 319 318 317 316 314 315 319 320 323 324 324 324 325 325 324 324 322
303 303 302 301 301 300 300 298 296 296 292 287 293 296 289 289 296 297 300 297 298 300 302 303 304 306 307 309 310 311 310 311 312 312 313 317 324 325 328 328 327 327 328 330 330 330 332 331 329 329 327 326 327 329 327 326 325 324 322 320 319 317 319 319 319 320 322 323 322 322 322 322 322 322 323 323 321 319 319 319 318 317 317 315 314 316 316 318 319 321 322 323 324 323 323 323 323
304 302 300 300 300 299 299 298 296 294 286 290 294 295 293 287 294 295 296 298 300 301 303 304 306 306 307 310 309 310 309 309 309 310 311 313 318 325 327 326 327 328 329 328 329 328 330 329 329 327 327 325 327 328 326 326 326 326 323 322 320 319 319 320 318 321 321 321 321 321 321 321 322 320 321 322 321 320 321 319 319 318 318 317 315 315 316 315 317 317 318 320 320 320 320 320 320
301 300 297 296 295 298 295 294 295 285 284 292 295 294 294 285 290 297 300 301 302 302 301 302 303 304 306 308 308 309 309 310 309 309 309 311 314 322 326 326 326 327 328 327 328 327 327 328 328 327 326 325 327 327 327 326 325 326 325 324 321 321 321 320 320 320 320 320 321 319 320 320 321 321 321 320 320 320 321 320 320 319 318 318 316 316 316 315 315 316 316 317 317 318 318 316 317
301 299 296 290 288 288 284 290 283 285 284 292 294 294 291 290 293 299 300 300 302 303 303 303 303 303 306 306 308 309 309 310 309 309 309 310 313 320 324 325 325 326 326 326 327 327 327 327 327 326 325 326 327 326 325 326 326 326 324 324 322 321 322 321 320 320 322 319 320 320 319 318 320 320 320 320 320 321 320 321 320 318 317 318 317 315 316 316 316 316 316 316 317 316 316 316 314
298 295 293 289 284 283 280 285 287 288 290 294 293 296 289 294 296 301 300 301 302 302 303 303 303 304 306 306 309 309 310 310 311 310 310 310 314 319 322 322 323 325 325 325 326 326 326 326 326 326 325 326 326 326 326 325 327 327 326 325 324 320 321 322 321 320 322 320 320 320 319 318 319 320 321 321 320 320 321 322 321 320 318 318 317 317 317 317 317 315 316 316 316 316 316 315 314
298 299 295 292 289 285 280 284 281 284 287 290 294 289 286 287 293 301 301 302 302 302 301 303 304 305 307 308 309 310 310 311 311 312 312 314 316 320 321 322 323 324 325 325 326 326 326 324 325 326 324 327 326 326 326 325 325 327 326 326 325 324 321 319 320 321 323 321 321 322 320 319 319 320 321 323 322 322 322 322 322 321 319 318 317 317 317 317 316 315 315 317 316 316 316 315 314
300 299 298 293 289 294 286 288 288 288 286 286 288 287 293 293 300 301 302 301 301 301 301 303 303 305 307 307 308 309 310 311 310 311 314 316 318 320 322 322 323 324 324 325 325 326 325 322 324 326 324 327 327 326 327 325 325 326 328 328 328 327 322 321 319 320 322 324 324 321 320 320 320 320 322 324 324 323 323 323 322 321 320 319 318 317 317 316 316 315 315 316 315 315 315 315 315
297 296 291 294 300 296 289 289 292 287 286 283 290 292 293 299 299 299 300 299 299 300 300 301 303 304 306 306 307 308 310 311 311 310 310 316 317 319 320 322 323 324 324 325 326 326 324 323 327 326 325 327 327 328 327 326 326 327 329 330 330 330 329 326 321 323 326 327 326 324 321 321 321 321 321 324 324 325 324 324 322 322 321 319 318 317 316 316 316 315 315 315 315 316 315 313 314
298 292 295 299 300 299 292 284 286 284 281 283 291 286 288 290 286 298 298 298 298 299 299 301 303 304 304 305 307 308 309 311 312 311 312 312 315 317 318 320 321 321 322 323 324 326 326 327 327 324 325 325 326 327 328 328 328 327 328 329 329 330 328 330 328 327 329 328 328 327 325 323 322 322 322 323 325 324 324 323 323 322 321 320 318 317 316 316 317 315 315 315 314 315 314 313 313
298 295 301 293 286 285 292 288 280 280 280 282 286 289 290 290 290 294 295 296 297 298 300 300 300 302 303 305 306 308 310 310 310 311 312 312 313 314 315 316 318 321 322 323 322 323 324 326 326 327 326 325 324 326 327 327 325 326 327 329 329 329 329 329 329 330 331 329 328 326 326 325 325 324 322 323 324 323 323 323 323 322 321 320 319 318 317 317 316 315 315 314 315 314 313 312 311
300 300 297 299 296 291 287 288 289 287 281 282 283 288 284 292 293 296 296 298 298 299 299 299 301 302 303 305 306 306 308 309 309 310 311 312 313 313 314 315 316 317 319 321 323 323 323 324 324 325 326 326 325 325 324 324 325 326 327 328 329 326 326 326 329 331 329 329 328 327 326 326 326 324 322 323 322 322 323 323 322 321 321 320 318 318 317 317 316 316 315 313 313 313 312 311 311
295 295 294 296 295 298 296 294 289 287 283 282 282 281 287 294 298 297 298 299 300 300 299 300 301 302 304 305 307 307 307 308 309 309 309 310 312 314 314 316 315 316 317 318 319 319 321 322 322 322 323 323 325 326 325 325 325 325 327 327 328 329 329 328 329 330 330 329 328 327 327 327 326 325 323 322 321 322 321 322 321 321 320 319 318 317 317 316 316 315 314 313 312 311 310 310 310
296 295 293 294 292 289 286 283 293 291 287 282 282 280 290 298 300 300 299 301 301 301 301 301 301 303 305 306 308 308 307 308 309 309 309 310 311 311 312 312 313 314 315 315 316 317 317 319 320 321 320 321 322 322 324 325 326 326 326 325 325 328 328 328 329 329 329 328 328 327 329 327 327 326 324 322 320 322 322 322 321 320 320 318 318 316 316 316 314 314 314 313 313 311 310 309 310
Wind_Speed
8 6 3 4 5 6 5 6 6 5 5 8 8 4 4 1 3 3 3 1 5 5 1 2 3 7 4 2 5 3 8 1 3 4 2 3 4 9 10 14 13 14 14 13 14 14 14 13 12 13 12 13 12 11 10 10 11 11 12 14 15 16 17 16 16 15 15 16 15 14 14 13 12 11 10 9 9 9 9 9 8 8 8 8 9 9 9 10 10 9 10 9 9 9 10 10 11
4 2 4 4 5 5 4 4 5 5 6 7 7 5 5 4 5 4 0 1 7 5 3 3 6 6 3 0 3 3 5 10 11 8 7 7 8 9 11 14 13 14 13 13 13 13 13 14 14 13 13 14 13 12 10 10 10 11 12 13 14 15 15 15 15 14 15 16 15 14 12 12 12 10 9 9 8 8 7 8 8 7 7 7 8 9 9 10 10 9 9 9 9 9 10 10 10
3 4 5 5 5 6 1 5 6 6 7 7 4 3 5 5 4 1 3 3 3 5 4 5 5 5 5 2 7 9 6 6 10 10 8 8 10 9 13 13 12 13 14 12 12 13 12 13 14 14 14 14 13 13 12 11 10 11 11 12 13 14 14 14 14 14 13 13 14 14 13 12 11 10 10 9 8 7 7 6 7 7 7 7 7 8 8 9 10 11 10 10 10 10 9 9 10
4 4 5 5 5 5 6 5 7 7 7 5 4 7 0 2 3 4 3 5 5 5 5 8 8 2 4 8 5 4 6 6 6 8 7 7 8 11 12 12 12 11 10 10 12 11 8 14 13 14 14 14 14 14 13 12 11 12 12 13 13 14 14 14 14 14 14 14 14 13 13 12 11 10 10 9 8 6 6 7 6 8 7 7 6 7 7 8 9 10 10 10 9 9 9 9 9
5 4 5 6 5 6 6 5 6 5 9 5 4 8 4 3 4 3 7 5 5 2 5 5 2 4 7 8 2 2 7 8 6 5 8 8 11 11 12 12 10 10 12 11 10 10 12 14 12 12 12 13 14 13 13 13 12 11 12 13 14 14 13 13 13 13 14 13 13 12 12 11 10 10 9 8 6 6 5 6 5 7 7 7 6 5 5 6 8 9 9 9 10 10 10 9 8
5 5 4 6 4 6 4 5 7 8 4 4 6 6 5 6 7 7 6 3 4 3 1 7 2 7 5 5 5 6 4 2 7 7 9 9 12 12 12 11 10 10 10 11 11 10 11 13 11 11 11 12 13 14 12 12 11 11 12 13 13 13 13 13 13 13 13 12 11 11 10 11 10 9 8 8 9 7 4 5 5 8 8 7 7 6 7 7 8 8 9 9 10 10 10 9 9
5 6 5 6 4 4 6 7 7 5 5 2 3 3 5 5 6 4 5 6 4 2 3 2 2 6 6 5 7 6 1 2 7 8 8 12 12 12 13 11 10 11 10 8 11 11 14 12 12 10 11 10 14 13 12 13 11 11 12 12 13 12 12 12 12 12 12 12 11 11 11 10 9 9 8 10 9 8 6 5 6 7 8 8 7 7 7 7 8 8 9 9 10 11 11 10 10
3 6 5 6 5 6 8 7 6 4 5 4 4 2 4 7 1 1 4 6 7 6 6 3 3 5 8 3 2 4 5 4 8 10 13 12 11 12 12 11 11 11 10 9 9 12 14 13 12 12 12 10 8 10 13 13 13 11 11 12 12 11 11 11 11 11 10 11 11 11 11 9 9 9 10 10 8 7 7 7 7 6 7 9 8 7 7 7 8 9 10 10 11 12 11 11 10
6 7 2 6 7 5 6 7 3 0 3 3 4 2 2 3 4 4 4 2 6 1 6 5 5 7 7 5 5 5 7 8 11 12 13 12 11 12 9 11 11 10 11 10 10 12 13 13 11 11 11 12 11 10 9 11 12 11 10 11 11 10 10 10 10 10 10 10 10 10 10 9 8 8 9 9 9 6 6 7 7 8 7 8 8 8 8 8 9 11 12 11 11 11 10 10 10
6 6 6 6 5 7 8 5 7 2 4 3 4 4 2 2 5 5 5 5 4 3 5 2 2 0 8 7 8 6 7 11 13 11 12 12 12 11 11 11 12 12 10 10 10 10 11 13 11 11 11 11 11 10 8 9 12 11 10 10 11 10 10 10 10 10 9 9 9 9 9 9 8 9 8 7 9 8 10 9 8 9 8 8 9 8 8 9 10 10 11 12 11 10 9 9 9
6 5 3 7 8 7 7 5 4 4 5 4 5 4 5 4 6 8 7 7 3 6 6 4 6 7 7 8 5 5 11 12 12 12 12 12 12 12 11 11 11 10 11 11 10 11 12 11 13 12 11 10 9 8 7 5 5 10 9 8 9 10 11 10 10 9 9 8 8 9 9 9 9 9 9 9 8 7 7 9 10 9 8 7 7 8 7 6 7 10 10 10 10 9 9 9 9
6 6 5 7 8 7 2 4 2 2 3 5 5 4 4 3 4 7 8 9 7 7 7 6 4 6 8 7 7 8 11 11 12 12 12 12 11 12 11 9 10 10 11 11 11 10 11 12 11 12 12 10 9 9 7 7 4 5 9 9 8 9 10 11 10 9 9 9 8 7 8 10 9 9 8 8 8 7 5 7 9 10 9 7 7 7 9 9 8 9 10 10 10 9 9 9 9
7 3 7 7 5 5 1 5 3 2 4 6 3 7 3 3 5 7 8 8 8 9 9 6 7 9 6 6 7 11 12 11 11 11 12 11 11 10 10 9 10 11 10 11 11 11 10 10 11 11 11 14 11 9 8 7 6 6 2 8 8 7 8 9 9 9 9 10 10 8 7 8 10 9 8 7 8 8 6 6 7 11 10 6 6 7 7 7 8 9 10 10 9 8 8 8 7
7 4 4 7 1 5 5 3 2 5 5 7 3 4 2 6 6 8 8 10 9 10 3 9 8 8 7 8 9 8 11 12 12 12 10 11 10 10 11 10 12 10 11 11 10 9 9 9 9 11 11 11 10 10 9 7 6 8 3 7 7 7 8 8 8 10 10 11 10 9 7 7 8 9 9 8 9 7 8 7 6 6 10 9 8 7 7 5 7 9 8 8 9 8 7 7 6
7 1 5 6 4 5 4 7 3 4 2 6 9 4 7 2 5 7 9 9 10 3 8 4 4 9 6 8 7 10 12 15 14 13 12 10 11 11 11 9 11 10 10 10 9 8 9 9 9 9 9 9 9 7 7 8 7 8 7 7 7 8 8 8 8 9 9 11 13 11 7 6 6 6 11 11 11 11 9 9 7 6 4 8 10 7 8 8 6 9 9 8 8 7 6 5 5
3 4 5 6 7 5 6 6 3 4 4 3 6 5 7 2 3 5 7 10 4 6 7 7 7 3 4 7 10 12 16 16 14 14 12 12 11 11 9 9 10 10 9 9 9 8 9 9 8 7 8 8 8 8 6 7 8 10 9 8 9 8 8 8 7 7 8 9 15 11 7 5 4 7 7 7 8 8 9 7 9 7 5 4 7 8 8 9 10 9 9 9 9 8 7 6 5
3 6 6 6 7 6 3 6 4 3 6 2 5 6 9 7 3 6 2 7 8 8 10 4 8 2 6 3 11 18 17 15 14 15 13 12 10 9 8 8 7 7 6 8 7 7 9 8 9 7 6 8 8 9 8 5 9 10 9 10 9 8 9 8 7 7 5 5 11 14 8 6 5 4 5 6 7 7 7 7 8 7 7 5 4 7 7 8 10 10 10 10 10 9 8 7 6
5 7 7 6 5 5 2 5 3 6 4 4 6 8 9 9 3 1 6 10 10 11 9 6 6 4 6 11 16 16 17 17 16 15 13 11 10 10 9 8 8 8 7 6 6 7 8 8 8 8 6 7 7 8 6 7 8 10 7 9 8 8 8 8 8 7 7 6 7 9 7 4 5 3 2 5 8 7 8 8 9 7 7 7 5 6 7 8 9 9 9 10 10 9 10 6 5
7 5 6 7 5 0 3 2 2 3 4 7 8 7 9 6 6 3 8 12 12 12 10 10 10 9 11 14 16 18 17 16 16 15 14 13 11 12 10 8 9 9 7 6 6 7 6 6 7 8 8 7 7 6 6 7 9 8 10 10 8 9 9 9 7 7 8 7 4 6 4 3 5 10 8 4 1 7 6 7 6 8 8 7 7 6 7 10 9 9 9 10 9 9 8 6 5
7 5 7 7 2 1 2 2 4 5 7 9 9 8 11 4 5 4 8 11 13 14 11 13 12 12 13 15 16 17 16 17 15 14 14 12 12 11 10 10 9 8 8 7 7 6 7 6 7 7 8 8 7 5 5 5 6 6 5 6 6 6 7 7 8 8 8 7 10 4 4 7 6 2 6 6 5 5 6 8 6 2 5 7 7 7 8 12 12 12 10 9 7 7 5 5 6
6 7 7 3 3 4 4 3 4 6 7 9 9 9 9 4 2 5 3 10 12 11 12 14 16 15 16 16 17 17 16 16 16 14 13 13 12 9 9 9 9 8 7 7 7 7 7 7 7 7 7 7 7 6 5 5 5 5 5 5 5 5 6 6 7 8 7 6 5 5 7 5 4 4 4 4 5 3 2 3 4 5 6 6 8 6 6 8 8 8 6 6 6 5 4 5 4
2 9 8 6 2 6 3 4 3 6 7 8 8 9 6 3 5 6 6 8 8 8 8 4 10 14 17 18 18 16 17 17 16 15 14 12 11 10 9 8 8 8 7 7 7 8 8 7 6 5 6 6 5 5 5 5 5 4 5 4 4 4 5 6 6 6 6 6 5 5 3 4 4 3 2 3 4 1 2 3 4 3 5 5 5 5 4 4 6 8 6 6 5 4 5 3 4
8 8 8 6 5 7 3 5 4 5 7 8 9 6 7 6 4 4 6 4 8 5 6 3 9 11 12 15 16 16 18 16 16 15 14 12 11 11 10 8 9 8 7 6 7 6 6 7 6 6 5 5 6 5 5 5 5 5 4 5 5 5 5 5 6 6 5 5 5 4 4 4 4 3 3 3 2 1 1 2 4 4 4 4 4 3 5 4 4 5 6 5 5 6 6 5 4
9 5 3 5 5 7 5 7 5 6 8 9 8 7 9 4 6 3 7 3 3 3 6 7 9 11 13 15 14 15 16 16 15 14 13 12 12 11 10 9 8 7 7 8 7 6 6 7 6 7 5 5 4 4 4 4 4 5 4 5 5 4 3 5 5 5 5 5 5 4 2 2 3 4 4 4 2 1 2 2 3 4 2 3 5 5 4 3 4 4 4 5 5 5 6 6 6
9 9 5 5 4 5 6 6 5 7 9 9 7 8 4 4 3 2 5 5 3 5 7 10 11 11 12 14 14 15 15 14 14 13 11 10 10 10 10 8 8 8 8 8 7 7 8 6 7 6 6 5 4 3 4 4 3 4 5 5 4 6 6 4 4 4 5 5 5 6 5 3 3 4 4 3 1 2 2 2 3 3 3 4 6 4 4 3 3 4 4 5 5 4 4 5 6
8 7 3 4 5 6 4 5 7 7 5 3 7 2 0 0 3 3 6 5 3 4 7 10 12 12 13 13 14 14 14 15 14 13 12 9 10 11 11 10 9 9 8 9 8 6 7 8 7 6 5 5 4 3 1 1 2 3 4 4 4 5 4 4 4 4 4 4 5 5 1 4 5 5 4 3 2 2 3 2 3 3 3 2 3 3 4 4 4 4 5 5 5 6 5 5 5
3 4 6 6 6 5 2 7 5 3 4 4 5 3 3 4 7 7 3 4 4 4 7 10 12 13 13 12 13 13 14 15 14 11 10 10 11 11 11 10 10 10 9 10 8 7 6 7 7 7 6 3 3 4 2 2 1 1 2 4 4 5 4 4 4 3 2 1 1 1 5 8 7 5 4 2 4 4 3 3 3 4 4 3 3 3 3 2 2 3 4 6 6 5 6 5 6
3 4 6 7 7 5 4 6 5 5 4 2 4 6 2 5 5 7 4 4 3 6 8 10 10 12 12 14 15 14 13 13 13 13 15 14 11 11 11 10 10 10 10 10 8 7 8 6 8 5 6 4 2 3 4 3 2 2 1 3 3 3 4 4 4 3 2 3 3 2 1 3 4 3 2 3 4 2 6 3 4 3 5 5 5 3 3 2 1 4 3 4 6 7 5 4 3
4 4 8 6 6 6 4 4 4 6 5 1 2 4 6 6 7 6 5 2 4 6 8 10 11 11 12 14 13 13 13 13 12 12 13 11 10 10 12 11 11 10 8 10 8 8 9 6 4 5 4 4 4 2 1 0 1 2 2 2 2 2 3 3 3 3 2 3 2 2 1 2 3 3 2 3 3 4 3 2 4 3 5 5 4 4 5 3 3 4 5 5 6 5 5 5 5
5 6 5 5 7 7 6 5 6 5 5 3 4 8 9 6 7 5 3 4 5 6 7 9 10 11 12 12 12 13 12 13 13 12 12 11 11 11 12 11 11 9 9 8 8 8 7 5 4 3 3 4 2 1 1 1 2 1 2 1 2 3 2 2 2 3 2 2 3 2 2 3 4 3 3 2 2 2 2 2 2 4 5 5 3 4 3 3 3 4 5 5 5 5 4 4 4
7 3 5 5 7 7 8 3 7 5 3 3 6 9 5 7 6 4 3 3 5 6 7 9 9 9 10 10 11 12 13 12 13 12 12 12 10 10 12 11 10 9 8 8 9 9 8 6 5 4 4 3 3 2 1 0 1 1 2 2 2 1 3 2 2 2 3 3 3 2 1 1 1 1 1 1 1 2 2 2 3 3 4 4 3 3 4 5 3 4 3 6 4 4 4 2 2
4 6 7 5 8 10 9 5 2 4 6 1 7 6 4 9 6 4 2 3 4 5 6 8 9 9 10 10 10 11 12 12 13 13 12 12 11 10 11 12 10 9 8 8 8 8 8 8 7 5 6 4 3 2 1 1 2 1 2 1 2 1 1 2 2 2 2 2 3 2 1 1 2 3 3 2 1 1 2 2 2 1 4 4 3 3 1 4 6 3 3 3 4 3 3 4 2
5 7 4 5 6 7 8 6 6 6 4 4 6 7 4 6 5 4 2 3 4 5 6 7 8 9 9 10 10 10 11 12 12 13 12 10 10 10 10 11 10 9 7 8 8 8 8 8 8 7 7 5 4 3 3 3 2 2 2 3 2 1 1 1 2 1 2 1 1 2 2 2 2 3 3 3 2 0 0 2 1 3 4 3 3 3 2 2 1 2 2 2 1 1 1 4 4
5 5 2 2 7 6 6 9 4 3 5 6 5 7 5 6 2 5 3 3 5 6 6 6 7 7 8 8 10 10 11 11 12 12 12 11 9 9 9 8 8 7 6 7 8 8 8 8 8 7 7 6 5 4 4 3 3 3 3 3 1 2 1 1 0 1 1 1 2 2 2 2 3 3 2 2 1 1 0 1 2 2 5 3 4 4 4 3 3 2 2 1 2 1 1 1 2
4 6 3 7 2 5 3 6 7 1 4 2 4 6 2 1 2 5 4 4 5 6 6 6 7 7 8 9 10 12 11 11 11 11 12 12 9 10 8 6 7 7 6 7 7 7 7 7 7 8 7 7 6 5 4 3 3 2 2 2 4 3 2 1 1 1 1 1 2 2 2 1 2 2 3 2 1 2 3 2 2 2 2 6 5 3 4 4 4 4 3 2 2 2 2 2 1
1 3 4 2 6 9 7 7 5 3 3 7 5 6 2 1 3 5 4 4 6 7 5 4 5 6 7 8 10 11 11 11 8 10 11 11 10 9 8 7 6 6 7 7 8 8 8 8 7 7 7 7 6 5 4 4 3 4 3 3 3 2 2 2 1 1 1 1 2 2 3 2 3 3 2 2 0 1 2 3 3 3 4 4 4 4 5 5 5 4 5 5 6 4 2 1 1
1 3 4 5 5 3 3 4 6 2 4 5 1 2 4 2 1 3 4 4 6 7 8 7 7 7 7 8 10 11 11 10 9 9 10 11 12 9 8 7 7 7 8 9 9 9 9 9 8 9 7 7 6 6 4 4 4 3 3 2 3 3 2 3 2 2 2 4 5 5 4 4 3 3 3 2 1 0 0 2 4 6 5 3 3 3 4 5 5 3 3 3 6 7 6 5 4
5 5 7 6 6 7 5 6 3 3 6 2 2 4 7 3 1 3 4 5 7 8 8 8 8 8 7 9 10 11 11 8 9 9 10 11 11 11 8 7 8 9 9 10 10 10 10 10 9 8 7 7 6 5 4 3 3 3 4 4 2 3 4 3 4 3 3 4 5 4 4 3 3 2 2 2 2 2 0 2 2 5 4 4 4 5 3 3 4 5 4 4 5 7 5 4 4
6 7 7 7 7 3 6 5 3 2 4 7 3 6 8 5 3 3 4 6 6 6 7 8 8 9 9 9 9 9 10 11 10 9 10 10 12 12 10 8 8 9 10 10 10 11 10 10 9 8 8 8 7 6 5 5 3 2 1 4 2 4 4 4 4 4 3 5 4 4 4 4 3 4 3 3 2 2 3 2 2 2 3 4 5 5 4 4 5 5 5 5 4 6 5 3 5
6 7 6 7 1 5 7 7 6 3 3 5 1 6 6 5 5 6 5 5 3 2 2 4 5 6 8 9 8 8 10 11 12 11 11 11 12 12 11 10 9 9 9 10 11 11 9 9 9 9 9 8 7 7 5 5 5 5 4 4 4 3 5 5 4 4 4 3 5 5 5 4 5 4 4 3 2 3 3 3 3 3 4 4 4 3 3 2 1 1 3 3 4 4 5 3 4
6 5 6 7 4 6 9 7 4 4 2 4 6 9 9 10 9 8 7 6 5 6 6 5 5 6 6 6 7 8 10 10 11 11 11 12 13 14 15 13 11 11 11 12 12 11 8 11 10 11 9 8 7 7 7 6 7 6 5 6 6 5 4 4 4 4 3 4 4 5 5 4 5 4 5 5 5 4 3 3 4 4 4 3 3 4 3 2 2 1 1 2 3 2 3 1 1
7 8 9 6 2 5 5 2 5 7 6 2 4 7 8 5 7 7 7 7 8 7 7 7 5 5 6 8 9 9 9 9 10 12 14 14 14 14 14 14 14 13 12 12 12 12 11 11 10 10 9 8 8 8 7 7 7 7 7 7 7 6 5 4 4 4 4 3 5 4 5 5 5 4 5 6 5 5 5 4 4 4 4 4 4 4 4 4 2 2 3 2 2 2 1 2 2
5 8 10 9 7 6 5 5 5 7 9 8 5 6 3 6 6 7 6 6 7 9 7 5 5 6 6 7 6 7 9 9 10 10 11 13 13 14 14 15 15 14 13 12 12 11 12 11 11 11 9 8 8 8 9 7 8 7 8 7 6 6 5 4 4 4 4 4 4 5 5 5 6 6 5 6 6 6 6 5 5 5 5 4 4 4 5 4 4 5 4 3 4 4 3 1 2
5 6 9 8 8 7 7 7 5 7 5 2 4 6 8 7 6 5 5 5 7 8 9 7 6 5 5 5 6 6 7 8 8 9 11 12 13 14 16 16 15 14 13 13 11 11 13 12 12 12 10 9 9 8 9 8 8 8 8 7 6 6 4 7 6 5 5 4 5 4 4 5 5 5 5 5 6 6 6 6 6 5 5 5 5 5 5 4 4 5 5 5 4 3 4 3 3
4 2 3 8 8 6 6 6 7 5 4 7 8 6 7 8 5 6 5 10 10 8 3 4 4 4 4 4 5 6 7 8 9 9 10 12 13 14 14 14 15 14 14 14 13 12 12 11 12 12 11 11 10 11 10 10 8 8 8 7 7 5 5 5 6 5 5 5 5 4 4 5 5 5 6 6 7 7 7 7 6 6 5 5 5 6 5 6 6 5 5 5 6 5 4 3 2
5 2 3 4 4 4 5 7 7 5 6 8 8 6 7 7 6 7 7 7 8 5 4 3 2 2 2 2 2 3 5 6 8 11 12 11 11 13 13 12 13 13 13 13 12 12 12 11 12 13 13 11 11 12 11 11 10 8 8 8 9 7 5 5 4 6 5 5 6 5 5 4 5 5 5 6 7 7 7 7 7 7 7 6 6 7 6 6 6 6 6 5 5 6 5 5 5
4 6 8 7 7 6 7 6 6 8 9 10 4 6 5 7 7 5 5 4 6 2 1 1 4 5 5 6 6 5 5 6 7 8 10 11 10 10 11 13 14 13 12 14 13 13 12 11 12 13 13 11 12 13 13 12 11 9 8 9 10 9 8 6 5 6 5 6 6 5 5 4 4 5 5 5 6 6 7 7 7 7 6 6 6 6 5 5 5 5 5 6 6 6 5 5 5
6 7 7 6 7 5 7 6 5 7 9 2 7 4 5 9 6 2 4 3 3 3 2 4 6 7 7 7 7 7 7 6 7 7 8 10 12 11 11 13 14 14 13 13 12 13 12 12 12 14 14 13 12 12 13 12 11 10 9 9 10 9 9 7 7 7 7 7 6 6 5 5 5 5 5 5 5 6 6 6 6 6 6 6 5 5 5 5 5 5 4 4 5 5 5 4 5
8 8 7 8 7 5 7 7 9 7 8 5 3 6 6 9 8 6 5 6 5 4 3 4 5 6 7 7 8 7 6 7 6 6 5 6 10 12 12 12 12 13 13 14 14 13 13 13 14 15 15 15 13 13 13 13 12 11 10 10 10 9 9 8 7 6 6 6 6 6 5 5 5 5 5 5 6 6 5 5 5 5 6 5 5 5 5 5 5 5 5 5 5 5 5 5 5
9 9 8 9 9 8 9 9 7 7 2 7 4 5 8 8 3 7 8 5 5 4 3 3 4 5 6 7 6 7 7 7 7 6 5 4 7 9 11 11 12 12 14 14 14 13 12 12 14 15 16 15 13 13 14 13 13 12 11 10 9 9 9 8 7 6 6 6 5 6 6 5 5 5 6 6 6 6 4 5 5 6 6 6 6 5 5 4 4 4 5 5 5 5 5 5 5
10 8 8 8 8 8 8 7 9 8 4 4 6 4 3 11 4 5 8 6 4 4 3 3 2 3 3 4 6 7 8 8 8 7 6 2 4 7 8 9 9 9 11 13 12 13 12 13 14 15 14 15 15 14 12 13 12 12 11 10 9 8 9 8 8 6 6 6 5 6 5 5 4 5 5 6 7 6 6 5 6 6 6 6 6 5 5 4 4 4 5 4 4 4 4 4 4
7 6 6 9 10 5 11 3 7 7 7 4 7 6 4 2 6 6 7 8 6 4 5 1 3 3 4 5 7 8 9 9 8 8 7 5 3 3 5 6 6 7 10 10 12 11 12 14 13 13 14 13 13 13 12 13 12 10 10 10 10 8 8 8 8 7 6 6 6 7 7 6 5 4 5 6 7 7 7 7 7 6 6 6 5 5 4 4 4 3 4 3 4 3 3 3 3
3 7 10 7 4 6 7 2 3 1 7 11 6 7 8 5 7 8 8 8 8 6 5 4 4 5 5 7 8 8 9 10 9 8 8 7 6 6 5 4 4 5 6 8 9 9 13 13 10 12 12 11 12 12 11 12 11 10 8 9 8 8 8 9 8 9 8 7 7 7 7 8 7 6 6 7 8 8 8 8 7 7 7 6 6 5 5 5 4 3 4 4 3 3 3 3 3
4 8 7 1 3 8 6 9 3 7 10 8 8 8 11 8 8 9 10 9 10 8 7 7 6 4 7 7 8 8 9 10 10 9 8 7 8 9 7 5 3 4 5 6 7 6 9 8 7 9 9 9 9 9 10 10 11 10 11 11 11 10 10 10 9 9 9 8 7 7 7 8 8 7 8 7 8 9 8 8 8 8 7 7 6 6 5 5 5 4 4 4 3 3 3 3 2
10 7 3 7 6 10 8 6 10 9 9 9 10 12 13 11 6 11 13 12 11 10 8 8 7 7 8 8 9 9 9 9 10 10 9 9 9 9 8 6 6 4 2 3 6 7 8 8 7 5 6 7 5 5 6 7 9 8 8 9 11 11 10 9 9 8 8 9 9 8 8 8 9 9 9 9 9 10 9 9 8 8 8 7 7 6 6 5 4 5 5 5 4 3 3 3 2
8 5 9 5 6 9 9 7 8 8 11 9 11 12 10 9 7 10 12 13 13 11 9 9 8 8 7 7 7 8 9 9 9 10 10 10 10 9 8 8 6 5 5 4 3 1 5 7 8 7 5 4 5 5 5 6 7 7 8 9 10 11 10 10 8 8 8 9 10 10 9 9 9 9 10 11 10 11 11 10 9 9 9 8 8 6 5 5 4 4 4 4 4 4 4 4 3
7 8 10 7 8 3 8 9 11 10 10 11 11 12 9 7 6 8 10 11 12 11 11 9 9 9 9 9 8 7 9 8 9 9 9 10 10 9 8 7 7 8 6 4 4 2 2 1 1 2 3 5 5 6 7 6 6 8 8 9 9 8 10 9 10 9 9 9 9 9 9 9 9 9 10 11 11 12 12 11 11 10 10 9 9 8 6 5 4 5 4 4 5 5 5 4 3
7 7 9 10 10 10 11 12 9 10 10 10 10 12 10 3 1 5 8 10 10 11 12 10 10 10 9 8 8 7 7 8 8 8 9 9 10 11 10 9 8 8 7 7 7 4 3 3 2 2 3 4 5 6 6 7 7 7 10 10 11 10 9 9 10 10 10 9 9 9 9 9 10 10 11 12 13 11 11 12 12 12 11 10 10 9 8 6 6 6 6 4 4 5 4 4 3
Wind_Direction
254 235 268 262 261 262 245 212 240 171 231 241 252 209 97 145 23 263 203 186 210 85 193 142 170 153 190 170 185 86 26 250 8 267 46 101 139 126 148 133 141 143 137 134 135 142 141 134 134 128 131 133 131 129 127 128 129 127 125 124 124 122 124 129 130 130 128 126 131 135 133 134 136 130 130 131 130 128 123 126 132 138 139 141 142 141 140 142 141 133 129 131 128 124 122 124 121
222 257 241 252 242 222 192 234 277 223 212 256 241 253 92 122 220 254 226 277 9 80 161 162 167 162 28 40 105 133 94 50 51 78 103 90 134 134 137 139 144 139 132 134 138 140 141 141 135 137 135 134 134 133 131 130 132 131 127 124 123 121 122 122 124 125 126 129 130 127 126 132 133 131 132 128 125 124 128 129 132 132 133 138 142 146 144 149 139 136 133 130 132 126 122 123 122
231 239 208 215 212 241 345 218 249 242 246 243 215 124 88 227 231 184 36 358 81 106 146 134 129 151 157 181 181 210 103 81 78 79 93 138 138 140 146 137 140 138 132 132 140 137 143 141 136 138 140 136 135 136 135 133 135 134 129 126 123 122 122 123 124 125 123 124 129 132 136 136 134 136 134 129 124 128 128 125 125 127 133 135 141 144 151 146 145 144 143 139 139 131 129 124 119
275 262 251 192 196 225 228 206 248 269 252 264 293 103 44 331 19 15 72 100 106 132 136 144 172 43 271 183 97 76 105 101 73 102 123 165 134 140 140 135 138 136 129 132 136 127 135 138 140 141 140 136 137 139 140 138 138 139 135 130 126 125 127 127 130 132 135 138 139 138 141 137 139 136 133 134 134 136 139 134 131 129 128 131 135 144 148 145 146 146 145 139 138 133 121 123 117
249 218 245 242 261 204 237 236 268 251 253 257 255 78 55 35 39 99 118 112 120 163 196 121 119 155 359 47 63 254 79 87 93 110 120 105 124 132 140 139 138 140 135 133 131 129 133 142 139 138 138 136 137 139 140 139 140 141 140 135 132 132 133 133 134 136 138 137 137 141 139 136 131 130 132 129 116 100 103 133 129 122 127 127 127 135 129 125 133 137 139 136 126 121 122 117 118
228 209 198 252 255 2 268 232 222 234 266 11 290 56 46 62 83 101 113 139 135 174 314 189 345 165 178 50 23 55 93 162 117 110 134 129 129 136 138 144 134 134 131 129 125 131 135 130 134 131 135 136 137 138 140 140 140 142 143 141 137 139 139 139 137 136 134 129 126 130 134 129 128 127 119 107 108 126 127 117 120 125 124 127 129 129 124 122 129 136 134 132 129 125 122 126 121
189 198 189 214 229 225 251 244 250 248 95 297 315 34 69 90 96 135 135 146 151 155 184 215 191 145 156 133 85 45 47 88 150 119 138 127 131 145 148 138 128 124 126 129 128 124 132 127 131 127 120 128 142 139 142 143 141 144 145 145 143 143 144 145 142 136 132 128 127 128 129 130 129 124 116 106 109 115 117 124 128 127 124 127 131 132 132 134 136 133 127 129 122 112 109 113 116
246 257 168 226 205 211 233 254 265 253 99 262 27 79 92 95 150 43 151 218 155 201 157 115 199 263 70 213 154 76 94 71 98 113 121 131 138 150 141 136 134 128 123 125 125 123 129 126 125 123 127 110 120 135 146 143 146 151 150 148 147 147 147 146 144 140 134 131 131 131 131 129 129 129 114 118 122 129 122 109 119 116 128 130 135 136 136 139 140 130 129 129 121 118 120 112 111
189 244 117 253 242 211 250 241 258 189 314 188 197 41 39 342 322 284 188 355 134 222 163 169 154 250 118 137 76 99 101 113 110 120 122 132 145 145 136 141 134 128 126 127 126 131 128 130 135 140 133 126 130 136 142 146 150 152 153 151 148 148 147 146 145 144 142 140 137 135 135 133 132 133 120 122 132 135 124 121 128 140 127 128 134 141 145 146 142 137 133 130 125 121 120 108 100
190 248 181 247 256 236 237 212 239 186 246 209 221 207 215 262 249 250 261 175 184 186 127 130 238 247 134 123 128 137 118 123 125 126 133 139 144 145 136 136 124 128 126 126 128 130 125 133 144 145 139 134 134 141 134 147 149 152 156 154 152 149 147 145 142 142 142 141 139 137 138 137 133 111 100 128 132 136 144 140 135 134 131 131 136 147 154 152 141 141 140 130 129 128 117 102 87
209 202 314 242 229 249 233 226 213 158 226 219 227 231 256 251 265 261 247 249 151 212 136 199 161 129 151 126 101 98 126 131 136 133 142 144 144 140 133 130 124 125 126 128 130 130 131 136 140 140 141 141 136 124 115 88 140 153 153 154 153 149 147 143 146 144 138 137 139 136 135 131 123 124 150 141 129 138 139 129 130 135 130 124 131 140 147 114 144 144 144 134 133 123 108 102 103
229 214 182 241 244 245 264 279 168 256 225 243 232 122 86 273 245 256 236 234 206 215 193 198 134 155 135 139 131 135 138 141 132 136 141 141 139 140 133 127 130 124 121 125 130 131 128 134 140 142 138 140 138 134 126 128 103 132 155 158 152 146 144 143 145 144 140 137 130 128 123 123 131 129 131 129 124 139 141 121 121 125 120 121 123 124 131 156 172 147 147 140 132 118 113 113 113
254 208 224 243 258 249 331 266 226 303 272 206 174 91 13 289 249 258 255 250 223 213 195 187 109 206 153 144 121 138 150 145 136 141 143 135 136 141 129 130 127 123 125 126 123 127 134 129 137 143 136 141 143 142 148 142 139 98 105 130 136 128 129 137 144 140 131 124 125 120 116 133 139 142 143 137 134 139 138 127 115 118 134 134 110 130 144 171 155 152 146 142 125 117 118 118 122
246 231 246 246 84 270 255 258 260 245 212 105 90 50 5 296 286 264 260 244 227 228 154 138 172 203 121 119 150 157 148 144 141 146 142 135 140 139 130 132 127 126 128 125 124 128 134 135 129 133 141 149 142 149 153 152 139 126 136 120 115 113 113 109 111 116 119 123 113 99 109 136 143 144 149 158 144 150 140 141 133 116 131 137 124 121 127 137 143 143 153 137 126 125 128 129 125
253 195 254 265 252 235 211 251 257 213 183 129 80 337 317 263 286 258 244 238 225 124 99 167 170 206 156 208 162 175 150 145 153 148 135 135 137 129 130 144 130 130 128 128 126 134 135 134 136 139 142 143 147 146 150 145 153 134 140 128 115 116 113 118 120 118 119 121 117 109 89 72 123 152 161 161 159 160 148 144 141 135 115 126 138 148 137 136 167 148 140 127 124 123 123 118 123
252 221 241 245 239 241 155 239 207 256 112 209 67 337 317 344 244 253 224 248 81 148 186 163 211 303 84 234 141 147 143 145 149 136 134 133 134 131 132 146 138 135 132 133 140 137 145 135 134 142 145 144 150 142 136 148 151 148 143 125 116 118 116 112 117 121 121 135 124 124 129 131 131 179 170 157 150 149 146 168 143 148 153 146 136 145 150 157 154 141 133 128 125 124 114 102 82
226 253 224 232 246 215 148 233 191 207 79 199 43 358 336 320 134 259 333 249 210 177 191 149 160 164 164 161 136 138 143 140 140 142 144 139 144 142 145 145 137 127 138 139 134 145 140 135 137 136 145 142 142 139 139 158 149 143 140 123 113 116 120 121 113 122 145 144 131 122 115 220 167 176 183 162 170 156 157 148 159 159 167 169 160 122 159 166 154 143 140 135 134 127 118 102 90
209 218 234 226 242 221 126 246 246 24 258 349 337 359 343 318 143 145 209 202 210 164 173 138 121 123 104 118 137 142 137 143 152 151 153 152 157 152 152 148 147 141 143 134 132 141 142 141 139 134 135 143 141 138 147 157 159 162 156 157 158 149 144 141 160 173 178 176 129 150 165 184 164 150 256 182 180 180 165 156 170 174 180 179 167 148 155 154 151 149 144 142 137 135 145 178 155
225 223 240 250 209 109 27 13 323 295 320 323 323 335 334 336 292 132 224 186 175 171 171 169 157 124 125 133 134 139 147 150 157 155 157 158 158 152 148 148 147 144 142 140 146 146 139 143 150 145 139 138 141 136 144 153 171 159 172 168 173 179 176 183 185 184 184 187 151 172 185 197 192 197 179 163 75 72 129 137 164 195 192 188 178 176 141 148 151 147 152 144 140 150 183 201 195
220 254 223 237 236 327 278 281 279 287 318 304 321 329 314 6 284 96 241 178 180 184 168 174 167 148 145 137 146 146 150 154 156 156 160 160 153 150 146 146 147 147 146 153 153 153 147 151 151 152 151 145 147 139 141 144 152 162 153 151 155 169 175 190 194 196 203 190 178 177 203 195 205 177 116 168 168 191 144 145 144 175 246 211 180 180 158 151 156 152 160 136 156 187 197 198 205
145 234 242 262 68 262 217 230 258 294 304 308 306 317 311 115 281 252 202 188 195 198 181 181 174 157 148 149 149 154 154 156 158 161 165 159 152 150 149 150 149 150 152 154 152 157 155 154 154 159 156 158 152 147 153 145 149 159 151 142 153 167 173 183 188 199 205 197 195 157 215 193 204 188 174 202 228 187 207 195 185 214 219 216 175 226 204 161 167 152 150 173 196 209 196 203 205
146 231 253 299 245 252 251 257 320 303 304 288 294 299 351 320 247 241 213 211 186 198 143 191 164 159 153 155 155 157 158 158 162 165 163 155 151 149 146 146 141 149 158 164 162 164 163 163 161 159 164 157 154 166 166 150 163 154 150 142 153 165 177 184 190 191 187 191 209 194 199 187 215 207 209 240 228 218 220 240 237 207 234 246 202 218 212 203 187 162 169 178 187 201 213 209 200
237 207 246 243 268 278 325 292 285 292 289 292 298 336 311 272 245 210 218 226 54 61 141 153 172 159 150 150 151 159 158 163 167 163 161 160 157 152 153 152 152 160 166 164 166 165 163 160 159 159 162 158 173 170 158 169 179 170 158 154 167 168 175 195 198 190 189 185 199 193 192 206 205 234 208 228 252 207 252 278 241 214 225 239 232 236 214 196 227 181 176 182 189 204 206 204 214
249 262 161 231 247 257 265 269 272 263 281 287 305 306 283 274 232 145 204 79 58 108 150 132 141 147 148 151 156 160 162 163 166 164 165 163 159 153 154 155 156 158 167 157 160 155 168 163 160 165 154 154 172 183 170 177 170 172 160 152 193 128 192 198 206 203 190 191 193 190 221 221 235 224 235 232 203 217 250 273 254 215 184 273 234 224 216 218 215 226 170 185 195 212 205 208 218
229 244 231 260 266 254 250 260 275 279 274 281 287 274 286 272 24 185 157 114 72 151 151 144 147 148 151 152 161 165 162 163 164 162 163 160 156 153 158 158 163 166 162 158 155 166 166 158 165 165 149 161 154 183 175 180 173 179 173 176 173 149 202 201 220 205 206 195 190 211 192 228 248 240 237 229 181 216 225 231 211 211 179 249 259 214 237 228 232 230 202 194 190 185 211 213 216
218 245 270 250 244 247 258 273 264 272 279 289 269 240 97 102 168 194 114 97 102 141 161 154 149 154 157 158 164 166 164 166 163 163 163 149 152 164 169 170 168 173 164 159 162 164 164 160 170 157 166 159 148 176 163 170 177 183 182 171 161 180 178 171 196 212 212 206 197 190 230 263 240 253 241 237 235 248 243 222 216 216 210 209 309 271 228 238 247 229 217 205 193 189 199 205 224
149 233 251 262 263 268 256 266 256 250 269 276 272 122 109 150 227 130 124 106 125 145 155 155 159 158 159 160 164 167 167 169 167 151 157 164 167 177 177 175 174 166 165 162 164 164 154 169 166 166 158 156 172 181 170 145 188 255 190 186 166 189 162 179 193 207 211 202 304 255 202 204 234 237 252 250 252 261 253 232 241 223 211 214 228 258 279 283 264 249 219 193 191 209 204 193 215
243 264 268 247 237 244 253 244 246 228 175 245 246 121 139 149 220 69 100 127 161 158 159 168 167 160 162 161 164 168 172 169 169 167 172 175 177 180 179 181 174 163 166 161 166 159 163 186 162 167 149 166 213 214 161 180 197 201 218 191 216 178 173 206 198 169 157 106 94 94 213 276 249 246 233 241 254 243 261 250 243 239 223 216 214 226 248 159 171 247 192 187 201 199 181 192 214
252 262 248 213 187 189 186 195 157 229 122 236 280 192 169 179 79 74 93 145 186 181 167 175 172 164 165 162 165 173 177 173 172 176 181 181 176 176 174 173 173 168 165 165 161 157 161 177 145 161 163 161 204 249 16 91 185 192 179 198 168 156 197 207 208 178 129 115 117 173 192 252 279 255 226 231 253 257 275 237 242 229 223 209 207 223 265 120 217 201 183 178 188 176 182 181 201
241 231 271 210 189 177 133 149 160 188 79 315 251 210 166 123 81 81 124 156 183 184 178 174 171 170 166 167 172 174 174 173 175 181 178 180 175 173 173 174 176 170 157 161 159 162 156 163 164 165 186 182 211 213 57 241 125 166 173 186 161 194 208 195 194 200 184 188 162 148 184 260 261 259 262 225 263 258 265 251 252 235 210 200 202 210 219 71 295 246 169 168 171 177 174 195 209
227 147 231 251 192 140 116 128 156 158 84 270 228 249 166 146 112 75 103 182 190 187 182 176 172 172 167 170 175 177 175 182 179 179 177 178 173 173 175 176 179 176 158 161 165 161 155 158 153 170 173 192 174 171 196 130 140 118 169 139 118 219 192 167 118 158 179 186 195 159 172 202 292 358 17 359 347 308 292 262 231 229 196 152 201 195 198 193 157 244 199 159 181 186 188 219 248
216 197 198 172 231 116 113 87 58 173 142 255 250 257 209 100 82 85 107 172 207 204 181 183 178 180 176 177 183 183 177 181 180 179 176 178 177 173 178 181 178 173 164 156 161 160 165 162 165 164 171 179 165 122 121 74 101 119 74 116 125 50 172 171 147 134 130 156 189 153 76 12 3 18 25 30 16 304 292 264 225 176 159 161 176 207 166 218 173 214 127 149 172 198 226 152 93
193 251 124 197 227 116 150 115 106 81 138 159 245 265 226 148 102 97 118 195 204 210 184 182 188 182 185 187 186 190 179 181 182 181 173 179 178 177 181 183 184 179 167 165 161 163 167 161 164 165 168 167 153 145 131 114 131 128 122 81 100 145 182 191 200 191 169 94 40 102 102 69 46 48 40 52 46 324 14 292 242 169 172 168 133 89 151 238 85 127 80 38 77 110 279 314 154
186 235 149 125 236 153 164 125 121 110 250 162 181 246 247 79 164 114 148 207 207 216 195 185 190 190 191 195 193 192 189 183 185 182 175 183 179 179 183 184 181 170 165 172 169 172 171 163 167 167 157 150 148 153 151 160 145 134 154 133 94 93 79 83 63 108 134 162 101 91 81 75 60 52 55 71 105 51 67 194 233 201 148 163 190 164 165 171 151 106 138 298 339 284 266 285 334
161 189 169 177 181 264 51 176 101 306 178 240 153 252 261 128 182 185 167 195 223 216 210 196 197 194 194 202 204 200 196 192 188 180 177 176 182 177 178 168 170 163 161 170 168 171 172 165 166 157 153 145 146 153 152 150 139 166 116 169 145 154 139 57 8 98 112 144 116 95 63 55 58 48 54 66 49 112 111 122 40 47 130 158 181 197 202 194 189 193 182 237 255 276 296 291 302
319 207 229 141 198 180 212 97 81 352 213 212 196 252 223 97 179 152 171 206 220 219 210 224 214 205 205 209 210 208 206 199 173 176 177 175 178 173 180 171 171 168 162 169 172 172 176 168 165 158 156 152 148 164 177 189 182 176 161 173 157 116 118 102 44 73 284 108 78 53 58 34 36 25 41 45 52 78 141 128 137 124 96 128 140 187 210 213 217 215 211 223 234 222 199 218 151
314 252 246 216 251 159 106 104 76 16 271 221 63 253 250 262 38 143 162 185 225 218 210 215 216 217 214 212 214 214 212 201 162 163 168 172 175 172 173 171 168 164 165 169 176 178 180 175 168 161 155 157 167 171 180 191 179 162 160 173 144 141 126 117 113 52 37 61 36 53 45 43 33 32 11 24 55 148 152 128 148 144 158 154 173 153 193 216 228 230 236 224 236 227 221 211 195
249 228 233 216 212 235 127 113 118 79 285 191 170 260 243 220 135 142 163 203 217 218 214 215 221 226 229 228 224 219 216 202 165 165 172 173 177 174 171 175 173 173 174 176 182 179 179 176 170 159 158 162 174 179 165 186 184 175 169 158 152 142 147 162 129 118 90 80 77 67 50 40 55 50 45 50 29 28 69 157 146 147 168 163 162 164 165 216 207 209 221 237 226 230 228 194 188
221 240 218 243 207 234 118 135 149 102 264 249 148 261 256 188 217 171 195 207 206 212 225 223 219 225 230 231 230 229 222 215 189 181 178 178 181 180 179 183 184 186 175 179 180 176 175 174 172 162 166 164 177 183 177 169 166 94 147 114 148 110 66 44 64 82 98 102 82 78 71 64 72 83 67 45 40 39 32 30 79 80 134 154 157 156 170 201 214 208 198 222 202 217 218 184 175
213 215 229 218 150 193 192 160 158 166 271 314 277 266 269 246 217 218 191 205 156 164 233 245 253 241 237 235 233 232 227 218 212 198 185 181 181 181 186 185 184 182 176 175 177 177 174 178 171 168 165 168 179 181 184 148 131 126 102 116 88 76 107 109 105 112 103 97 90 68 75 68 58 48 50 85 69 68 52 65 64 64 86 93 123 125 114 94 278 189 175 213 232 209 201 205 179
202 242 228 235 160 216 283 120 190 148 171 256 254 250 247 228 213 202 182 185 203 203 201 211 221 244 257 268 261 249 242 229 226 212 192 187 185 187 188 188 178 181 180 177 176 177 172 177 173 170 165 167 182 178 179 148 142 143 135 128 125 120 131 140 146 130 121 104 93 87 85 71 65 68 73 55 75 79 80 67 67 75 65 59 79 100 96 100 117 106 281 219 201 227 200 204 193
186 206 247 261 218 254 212 250 232 219 201 203 282 275 252 178 202 211 154 180 195 184 204 205 195 197 214 231 241 243 240 243 237 224 209 196 193 189 189 185 184 184 184 179 177 176 172 175 170 167 164 167 180 182 183 172 165 159 157 159 155 154 151 159 154 134 139 111 83 99 92 80 79 73 69 72 73 87 92 85 79 84 76 68 59 68 93 99 83 76 35 35 91 79 357 205 199
223 190 201 223 240 222 222 227 218 239 246 124 274 275 277 161 216 187 175 195 193 166 197 187 197 210 214 221 224 231 240 239 237 240 230 210 200 194 190 188 187 187 185 173 174 174 172 169 165 166 165 166 179 183 189 185 174 171 172 168 163 164 151 132 102 112 112 105 99 90 94 89 94 90 80 84 86 86 84 85 82 75 83 81 75 75 74 65 57 45 53 41 45 43 37 317 150
230 106 183 206 213 207 218 244 237 273 349 253 213 259 275 267 231 124 160 224 233 225 194 184 191 202 228 241 244 243 246 248 255 246 235 227 212 201 195 189 186 189 178 170 169 168 171 165 163 166 168 169 178 184 193 195 184 180 179 176 165 170 159 127 135 123 114 114 109 108 107 106 94 93 94 89 91 85 82 83 79 76 77 79 87 83 78 73 78 80 68 65 56 58 62 69 74
56 257 187 205 212 206 225 227 253 286 293 265 201 202 245 245 224 159 199 230 215 206 201 203 155 175 185 225 253 271 275 277 272 261 246 231 221 209 201 192 192 181 176 173 169 166 167 163 165 169 172 174 175 184 194 198 195 185 183 176 167 164 153 137 145 139 133 125 121 114 102 97 89 76 85 97 95 95 93 85 80 76 69 76 86 89 83 80 75 74 74 66 67 64 53 42 43
118 167 179 183 210 205 236 251 253 207 244 261 263 179 268 269 241 214 163 238 213 179 173 145 109 87 74 63 321 288 278 273 268 267 264 251 231 219 210 201 186 181 179 171 162 160 165 161 170 171 176 179 177 184 194 200 200 191 190 180 171 165 163 151 157 141 145 151 137 134 133 129 115 109 99 99 102 97 92 92 89 84 81 71 69 77 86 85 83 82 71 71 73 82 73 63 51
131 182 185 192 194 209 216 247 261 275 247 250 226 167 260 275 270 224 244 46 26 59 251 348 15 1 356 7 339 339 327 311 294 279 266 251 233 223 204 198 186 173 172 168 161 165 165 167 173 176 180 181 179 186 193 201 201 198 196 186 178 171 169 168 170 159 158 166 154 151 151 136 135 122 120 115 109 106 97 90 90 90 86 80 80 82 75 85 92 89 86 80 73 71 71 72 66
192 200 212 216 223 209 232 224 231 242 253 233 149 183 179 252 234 202 95 99 69 15 14 0 348 352 350 346 344 342 341 323 307 290 274 251 220 203 196 190 178 168 167 167 162 166 166 172 169 175 181 187 183 186 192 201 202 201 203 194 185 180 176 182 186 176 175 174 168 161 154 150 149 142 144 134 132 123 116 106 103 100 93 91 86 81 87 90 88 87 84 86 85 79 80 75 66
218 224 230 238 230 222 239 225 224 232 250 120 117 154 220 230 267 111 131 106 82 48 10 357 345 348 352 349 350 353 349 344 336 317 288 250 210 187 181 184 177 170 170 169 168 169 171 171 172 178 184 189 187 188 192 197 203 204 204 201 194 186 185 191 192 193 184 184 178 172 164 169 162 165 162 154 144 145 132 127 118 107 105 99 94 93 85 75 77 82 84 86 76 74 69 66 70
214 223 225 235 245 232 245 253 261 255 211 123 141 166 252 277 198 107 111 100 77 75 52 17 2 351 349 348 0 10 11 10 358 344 336 242 205 186 181 186 186 180 179 177 173 172 172 171 175 186 188 188 187 191 191 195 203 207 206 206 201 192 189 191 197 199 190 195 182 176 180 182 174 179 168 168 154 160 145 126 115 106 105 109 106 99 93 87 84 93 93 84 86 80 78 81 81
224 238 240 243 257 255 251 250 254 257 269 104 120 205 246 233 86 85 97 102 105 101 78 62 10 357 344 16 21 27 29 25 17 13 12 7 200 180 173 178 184 188 187 183 178 179 177 175 184 191 189 186 190 190 190 197 203 208 210 211 208 203 193 191 198 200 194 197 192 178 186 186 186 184 174 168 158 164 145 136 127 123 118 113 112 107 102 96 83 78 83 75 74 75 80 70 67
210 230 244 245 242 255 262 310 292 295 284 217 175 251 233 287 127 129 133 125 120 124 108 112 78 44 59 42 34 30 32 32 29 27 27 52 71 111 140 159 166 172 180 180 180 179 180 186 192 193 192 186 188 187 189 194 201 205 209 213 214 212 206 197 198 198 197 196 196 194 186 187 189 181 172 163 165 165 156 147 144 136 132 127 123 122 118 104 102 97 91 91 87 86 90 84 98
150 223 231 250 317 261 266 208 100 7 264 266 248 223 234 127 167 149 152 147 135 146 143 125 100 90 67 50 37 31 36 36 34 35 30 20 82 99 95 115 145 150 161 171 176 182 185 189 188 190 189 187 185 186 190 188 196 197 203 211 212 211 214 211 203 192 190 188 193 196 197 190 183 182 171 167 171 167 165 160 152 147 144 139 135 131 125 123 126 111 100 100 94 88 79 70 46
240 234 245 104 261 274 250 267 196 225 255 253 236 238 241 218 241 159 164 165 156 151 151 124 116 100 75 56 46 39 37 37 46 54 51 39 40 60 75 94 127 170 176 174 184 182 195 199 200 194 193 192 176 173 177 179 173 189 205 206 208 211 213 212 211 198 188 186 188 193 194 186 184 180 171 169 173 170 168 165 159 156 152 150 148 145 144 139 142 125 125 119 104 111 116 99 83
254 288 52 231 216 224 213 245 252 257 248 259 240 233 245 241 221 167 176 179 165 159 155 145 124 97 83 71 57 49 41 36 38 42 47 46 51 55 57 70 82 75 101 175 193 196 205 218 221 217 212 210 192 156 164 172 185 197 209 210 208 212 216 218 215 209 196 191 187 193 194 195 185 176 174 169 174 174 173 172 169 163 160 158 158 152 155 155 148 134 141 127 134 141 119 113 94
236 257 241 240 271 252 243 222 272 263 263 263 257 250 249 239 261 180 183 177 167 158 165 137 119 107 94 78 63 53 45 40 37 43 45 48 51 58 56 50 64 97 111 82 50 202 217 216 220 225 231 225 224 206 189 193 194 203 216 216 216 218 219 222 219 212 208 204 195 190 192 195 189 181 178 174 179 178 177 177 175 170 166 165 162 162 164 151 158 142 149 137 134 151 142 141 137
203 221 240 209 234 296 294 254 240 252 263 264 276 273 267 266 273 202 188 179 165 166 155 143 128 115 103 93 81 65 56 47 43 43 50 55 58 59 60 63 59 46 48 88 104 77 16 351 259 261 267 262 247 245 240 224 200 205 215 219 227 226 223 222 221 216 218 215 212 201 192 190 190 191 181 178 182 182 181 180 178 175 174 170 166 166 165 165 161 148 136 137 151 153 157 142 145
296 269 253 251 253 244 242 254 246 248 258 259 258 260 266 342 248 211 208 165 168 166 155 149 138 125 117 108 97 88 79 64 59 54 51 52 56 61 61 60 60 57 42 45 59 53 57 357 330 330 308 282 278 268 256 248 235 221 219 220 224 232 230 227 224 220 221 223 215 210 201 190 189 190 187 184 186 183 184 183 181 180 177 174 173 168 169 171 165 156 153 156 160 161 154 142 159